Погода в Ростошах

Россия / Воронежская область     51°35′28″N   40°55′55″E
темп.,
°C
ветер,
м/с
пор.,
м/с
влажн.,
%
обл.,
%
осадки,
мм/ч
давл.,
гПа
погр.,
м
23 апреля, пт
пт2300:00+10ю3372100 0.0 102159
03:00+10ю2374100 0.0 102149
06:00+9ююв2279100 0.0 102136
09:00+13ююв3466100 0.0 1021409
12:00+15ю4555100 0.4 10191365
15:00+16ююз455399 2.1 10181444
18:00+14ююв356796 1.9 1017214
21:00+10ююв59856 2.8 1016181
24 апреля, сб
сб2400:00+9ююв499096 0.0 1015201
03:00+9ююв4887100 0.0 1012204
06:00+8ююз3893100 0.6 1012295
09:00+10ююз81177100 1.1 10101257
12:00+4зсз91295100 2.1 1011616
15:00+9з696499 2.8 10111570
18:00+8з6106641 1.2 10121185
21:00+4зюз511738 1.3 1013400
25 апреля, вс
вс2500:00+3зюз814775 0.0 1014815
03:00+1зюз814785 0.0 1015825
06:00+1зюз714785 0.0 1016669
09:00+5з710635 0.0 10181135
12:00+9з7943100 0.0 10182604
15:00+9зюз694095 0.0 10182211
18:00+9юз58485 0.0 1017549
21:00+5ююз476079 0.0 1018109
26 апреля, пн
пн2600:00+4ююз4126271 0.0 1017224
03:00+3ю4116790 0.0 1016228
06:00+3ююз3771100 0.0 1016178
09:00+7юз4660100 0.0 1015700
12:00+10з566195 0.0 10141426
15:00+8зсз457499 0.1 1014770
18:00+7зсз2375100 0.2 1012782
21:00+5зсз459192 2.9 1013523
27 апреля, вт
вт2700:00+4з238879 0.2 1013134
03:00+2ююз36945 0.2 1013141
06:00+2зюз38880 0.0 1013230
09:00+7зюз576229 0.0 10131017
12:00+9зюз8104998 0.5 10132156
15:00+10зсз6940100 0.5 10122554
18:00+8з4648100 0.0 1013486
21:00+4зюз377799 0.8 1017148